Location: Heilwood
(40.6210°N, 78.9150°W)
Time: 03:52:59
(UTC-05:00)

BREEZE-M DEB (TANK) - Visible Passes

Search period start: 27 February 2017 00:00
Search period end: 09 March 2017 00:00
Orbit: 307 x 15857 km, 49.5° (Epoch: 26 February)

Date Brightness Start Highest point End Pass type
(mag) Time Alt. Az. Time Alt. Az. Time Alt. Az.
27 Feb 5.3 21:23:00 10° W 21:25:25 24° SW 21:25:25 24° SW visible
28 Feb 5.4 21:25:25 10° W 21:28:12 23° SW 21:28:12 23° SW visible
01 Mar 5.6 21:27:50 10° W 21:31:02 22° SW 21:31:02 22° SW visible
02 Mar 5.8 21:30:18 10° WSW 21:33:58 20° SW 21:33:58 20° SW visible
03 Mar 6.0 21:32:47 10° WSW 21:36:55 18° SSW 21:37:00 18° SSW visible
04 Mar 6.1 21:35:19 10° WSW 21:39:21 17° SSW 21:40:11 17° SSW visible
05 Mar 6.2 21:37:56 10° WSW 21:41:47 15° SSW 21:43:35 14° SSW visible
06 Mar 6.3 21:40:40 10° WSW 21:44:11 13° SSW 21:47:19 12° SSW visible
07 Mar 6.4 21:43:38 10° SW 21:46:35 12° SSW 21:50:53 10° SSW visible
08 Mar 6.6 21:47:13 10° SW 21:48:58 11° SSW 21:51:07 10° SSW visible
